Location: Oshawa
(43.9000°N, 78.8670°W)
Time: 12:30:49
(UTC-05:00)

S-56A Canister/Altair - All Passes

Search period start: 06 March 2015 00:00
Search period end: 16 March 2015 01:00
Orbit: 635 x 2501 km, 38.9° (Epoch: 03 March)

Date Brightness Start Highest point End Pass type
(mag) Time Alt. Az. Time Alt. Az. Time Alt. Az.
06 Mar - 01:58:04 10° SW 02:06:01 34° SSE 02:11:40 10° E visible
06 Mar - 04:02:50 10° WSW 04:09:51 52° S 04:14:50 10° E visible
06 Mar - 06:08:01 10° W 06:13:13 39° SSW 06:17:27 10° SE visible
06 Mar - 08:14:10 10° WSW 08:16:00 12° SSW 08:17:39 10° S daylight
06 Mar - 23:24:58 10° S 23:29:17 13° SE 23:33:28 10° ESE night (unlit)
07 Mar - 01:25:16 10° SW 01:33:41 33° SSE 01:39:40 10° E night (unlit)
07 Mar - 03:30:02 10° WSW 03:37:40 53° S 03:42:56 10° E visible
07 Mar - 05:35:26 10° W 05:41:11 43° SSW 05:45:36 10° ESE visible
07 Mar - 07:41:16 10° WSW 07:43:58 15° SSW 07:46:25 10° S daylight
07 Mar - 22:53:04 10° SSE 22:56:46 12° SE 23:00:38 10° ESE night (unlit)
08 Mar - 00:52:28 10° SSW 01:01:18 32° SSE 01:07:38 10° E night (unlit)
08 Mar - 03:57:09 10° WSW 04:05:26 53° S 04:11:02 10° E visible
08 Mar - 06:02:46 10° W 06:09:05 48° SSW 06:13:45 10° ESE visible
08 Mar - 08:08:31 10° WSW 08:11:58 18° SSW 08:14:59 10° S daylight
08 Mar - 23:21:32 10° SSE 23:24:13 11° SE 23:27:23 10° SE night (unlit)
09 Mar - 01:19:38 10° SSW 01:28:50 31° SSE 01:35:33 10° E night (unlit)
09 Mar - 03:24:12 10° WSW 03:33:09 53° S 03:39:08 10° E visible
09 Mar - 05:30:00 10° W 05:36:58 52° S 05:41:55 10° ESE visible
09 Mar - 07:35:47 10° W 07:39:57 22° SSW 07:43:27 10° SSE daylight
09 Mar - 22:51:28 10° SE 22:51:37 10° SE 22:52:38 10° SE night (unlit)
10 Mar - 00:46:50 10° SSW 00:56:21 30° SSE 01:03:25 10° E night (unlit)
10 Mar - 02:51:12 10° WSW 03:00:48 52° SSE 03:07:12 10° E visible
10 Mar - 04:57:08 10° W 05:04:48 55° S 05:10:03 10° ESE visible
10 Mar - 07:03:02 10° W 07:07:56 26° SSW 07:11:51 10° SSE visible
11 Mar - 00:14:04 10° SSW 00:23:47 29° SSE 00:31:13 10° E night (unlit)
11 Mar - 02:18:09 10° WSW 02:28:24 51° SSE 02:35:14 10° E visible
11 Mar - 04:24:12 10° W 04:32:35 58° S 04:38:12 10° ESE visible
11 Mar - 06:30:15 10° W 06:35:53 31° SSW 06:40:12 10° SSE visible
11 Mar - 23:41:20 10° SSW 23:51:11 27° SSE 23:58:55 10° E night (unlit)
12 Mar - 01:45:04 10° SW 01:55:56 50° SSE 02:03:14 10° E night (unlit)
12 Mar - 03:51:11 10° W 04:00:18 60° S 04:06:19 10° ESE visible
12 Mar - 05:57:24 10° W 06:03:49 36° SSW 06:08:31 10° SE visible
12 Mar - 23:08:42 10° SSW 23:18:31 26° SSE 23:26:32 10° E visible
13 Mar - 01:11:59 10° SW 01:23:24 49° SSE 01:31:12 10° E night (unlit)
13 Mar - 03:18:05 10° WSW 03:27:58 62° S 03:34:24 10° ESE visible
13 Mar - 05:24:30 10° W 05:31:42 41° SSW 05:36:47 10° SE visible
13 Mar - 07:32:39 10° WSW 07:34:14 11° SW 07:35:28 10° SSW daylight
13 Mar - 22:36:09 10° S 22:45:49 24° SE 22:54:02 10° E visible
14 Mar - 00:38:53 10° SW 00:50:49 47° SSE 00:59:06 10° E night (unlit)
14 Mar - 02:44:56 10° WSW 02:55:33 63° S 03:02:28 10° E visible
14 Mar - 04:51:30 10° W 04:59:32 46° SSW 05:05:01 10° SE visible
14 Mar - 06:58:51 10° WSW 07:02:13 15° SW 07:04:57 10° S visible
14 Mar - 22:03:43 10° S 22:13:05 22° SE 22:21:24 10° E visible
15 Mar - 00:05:50 10° SW 00:18:09 46° SSE 00:26:56 10° E visible
15 Mar - 02:11:43 10° WSW 02:23:04 64° S 02:30:30 10° E visible
15 Mar - 04:18:27 10° W 04:27:19 51° SSW 04:33:13 10° ESE visible
15 Mar - 06:25:32 10° W 06:30:11 19° SW 06:33:49 10° S visible
15 Mar - 21:31:25 10° S 21:40:20 20° SE 21:48:36 10° E visible
15 Mar - 23:32:49 10° SW 23:45:26 44° SSE 23:54:43 10° E visible
